Location: Evensen
(52.5775°N, 9.5258°E)
Time: 12:01:46
(UTC+00:00)

Cosmos 540 Rocket - Pass Details

Date: 15 May 2026
Orbit: 735 x 747 km, 74.1° (Epoch: 5 June)

Event Time Altitude Azimuth Distance (km) Brightness Sun altitude
Exits shadow 22:07:43 11° 217° (SW) 2,183 5.5 -16.8°
Maximum altitude 22:12:36 65° 299° (WNW) 826 3.8 -17.0°
Drops below altitude 10° 22:17:44 10° 21° (NNE) 2,275 6.7 -17.2°
Sets 22:20:08 0° 25° (NNE) 3,201 7.5 -17.3°
